FW6037 Weather Reports


time (UTC)temp
C
wind
direction
speed
KPH
gust
KPH
rain 1hr
cm
rain 24hr
cm
rain mn
cm
humidity
%
barometer
mb
20260508203051 12 330 3.2 14.5 0.00 0.51 0.00 67 1001.7
20260508201555 12 39 3.2 14.5 0.00 0.51 0.00 65 1001.6
20260508200059 12 322 4.8 20.9 0.00 0.51 0.00 62 1001.5
20260508194542 13 148 8.0 17.7 0.00 1.09 0.00 63 1001.4
20260508193040 13 344 4.8 16.1 0.00 1.09 0.00 64 1001.5
20260508191541 12 127 4.8 17.7 0.00 1.09 0.00 64 1001.3
20260508190044 12 323 8.0 12.9 0.00 1.09 0.00 69 1001.3
20260508184538 11 116 4.8 17.7 0.00 1.65 0.00 69 1001.4
20260508183038 12 57 3.2 17.7 0.00 1.65 0.00 68 1001.5
20260508181603 11 159 1.6 14.5 0.00 1.65 0.00 72 1001.5
20260508180035 12 173 4.8 17.7 0.00 1.65 0.00 70 1001.5
20260508174535 12 48 6.4 17.7 0.00 1.65 0.00 70 1001.8
20260508173035 12 175 3.2 14.5 0.00 1.65 0.00 73 1001.9
20260508171538 11 102 1.6 14.5 0.00 1.65 0.00 76 1001.8
20260508170034 11 139 4.8 12.9 0.00 1.65 0.00 72 1001.7
20260508164538 11 350 4.8 11.3 0.00 1.65 0.00 71 1001.8
20260508163032 11 139 4.8 14.5 0.00 1.65 0.00 72 1001.7
20260508161536 11 328 4.8 14.5 0.00 1.65 0.00 70 1001.5
20260508160038 12 69 3.2 14.5 0.00 1.65 0.00 71 1001.5
20260508154533 12 139 6.4 16.1 0.00 1.65 0.00 69 1001.5
20260508153028 13 76 6.4 19.3 0.00 1.65 0.00 68 1001.7
20260508151526 12 106 11.3 24.1 0.00 1.65 0.00 69 1001.9
20260508150026 12 102 9.7 20.9 0.00 1.65 0.00 69 1001.7
20260508144525 12 75 4.8 12.9 0.00 1.65 0.00 69 1001.9
20260508143021 12 157 4.8 12.9 0.00 1.65 0.00 72 1002.2
20260508141530 12 165 6.4 12.9 0.00 1.65 0.00 70 1002.3
20260508140019 12 108 1.6 12.9 0.00 1.65 0.00 74 1002.6
20260508134517 11 100 4.8 14.5 0.00 1.65 0.00 72 1002.6
20260508133020 11 116 4.8 12.9 0.00 1.65 0.00 75 1002.3
20260508131611 11 101 4.8 16.1 0.00 1.65 0.00 77 1002.3
20260508130011 11 114 6.4 16.1 0.00 1.65 0.00 81 1002.2
20260508124509 10 104 4.8 11.3 0.00 1.65 0.00 85 1002.2
20260508123005 10 58 0.0 8.0 0.00 1.65 0.00 90 1002.2
20260508121501 9 117 0.0 8.0 0.00 1.65 0.00 96 1002.5
20260508114555 7 62 1.6 9.7 0.00 1.70 0.00 100 1002.2
20260508113056 6 52 0.0 0.0 0.00 1.70 0.00 100 1002.4
20260508111557 5 48 0.0 0.0 0.00 1.70 0.00 100 1002.7
20260508110058 5 48 0.0 0.0 0.00 1.70 0.00 99 1003.0
20260508104547 5 41 0.0 0.0 0.00 1.70 0.00 100 1002.7
20260508103107 4 41 0.0 0.0 0.00 1.70 0.00 99 1002.9
20260508101549 4 41 0.0 0.0 0.00 1.70 0.00 99 1002.6
20260508100044 3 38 0.0 0.0 0.00 1.70 0.00 99 1002.3
20260508094602 3 38 0.0 0.0 0.00 1.70 0.00 99 1002.2
20260508093043 3 38 0.0 0.0 0.00 1.70 0.00 99 1002.2
20260508091541 3 38 0.0 0.0 0.00 1.70 0.00 99 1002.3
20260508090039 3 38 0.0 0.0 0.00 1.70 0.00 99 1002.0
20260508084536 3 38 0.0 0.0 0.00 1.70 0.00 99 1001.5
20260508083036 4 38 0.0 0.0 0.00 1.70 0.00 99 1001.7
20260508081532 4 38 0.0 0.0 0.00 1.70 0.00 99 1001.2
20260508080037 5 31 0.0 0.0 0.00 1.70 0.00 99 1001.3
20260508074527 5 31 0.0 0.0 0.00 1.70 0.00 99 1001.5
20260508073029 5 31 0.0 0.0 0.00 1.70 0.00 99 1001.6
20260508071528 5 31 0.0 0.0 0.00 1.70 0.00 99 1001.8
20260508070025 5 31 0.0 0.0 0.00 1.70 0.00 99 1001.9
20260508064534 5 31 0.0 0.0 0.00 1.70 0.00 99 1001.7
20260508063025 5 31 0.0 0.0 0.00 1.70 0.00 99 1001.8
20260508061522 5 24 0.0 1.6 0.00 1.70 0.00 99 1001.7
20260508060022 6 15 0.0 6.4 0.00 1.70 0.00 99 1001.7
20260508054521 6 287 0.0 1.6 0.00 1.70 0.00 99 1001.8
20260508053024 6 287 0.0 6.4 0.00 1.70 0.00 99 1001.7
20260508051519 6 204 0.0 4.8 0.00 1.70 0.00 100 1001.7
20260508050024 6 114 0.0 1.6 0.00 1.70 0.00 99 1001.6
20260508044517 6 114 0.0 0.0 0.00 1.70 0.00 99 1001.7
20260508043015 5 114 0.0 0.0 0.00 1.70 0.00 99 1001.8
20260508041514 5 114 0.0 3.2 0.00 1.70 0.00 99 1001.7
20260508040021 5 91 3.2 11.3 0.00 1.70 0.00 99 1002.1
20260508034512 5 116 0.0 0.0 0.00 1.70 0.00 99 1001.9
20260508033010 5 116 0.0 1.6 0.00 1.70 0.00 99 1002.0
20260508031508 5 116 0.0 0.0 0.00 1.70 0.00 99 1001.9
20260508030006 5 116 0.0 0.0 0.00 1.70 1.70 99 1002.1
20260508024506 5 116 0.0 0.0 0.00 1.70 1.70 99 1002.4
20260508023007 6 116 0.0 3.2 0.00 1.70 1.70 99 1002.0
20260508021503 6 118 3.2 9.7 0.00 1.70 1.70 98 1002.3
20260508020004 7 41 0.0 1.6 0.00 1.70 1.70 99 1001.9
20260508014505 7 134 0.0 3.2 0.00 1.70 1.70 99 1001.8
20260508013003 7 135 0.0 0.0 0.00 1.70 1.70 100 1001.6
20260508011502 7 135 0.0 0.0 0.00 1.70 1.70 99 1001.6
20260508010003 7 177 0.0 3.2 0.00 1.70 1.70 100 1001.6
20260508004503 7 104 0.0 9.7 0.00 1.70 1.70 99 1001.9
20260508003003 7 160 1.6 3.2 0.00 1.70 1.70 100 1001.9
20260508001601 7 122 0.0 1.6 0.00 1.70 1.70 99 1001.7
20260507234602 7 129 0.0 0.0 0.00 1.70 1.70 99 1001.3
20260507233058 7 129 0.0 1.6 0.00 1.70 1.70 99 1001.4
20260507231600 6 129 0.0 1.6 0.00 1.70 1.70 99 1001.6
20260507230100 7 129 0.0 4.8 0.00 1.70 1.70 98 1001.5
20260507224616 7 129 0.0 3.2 0.00 1.70 1.70 98 1001.5
20260507223100 7 118 0.0 9.7 0.00 1.70 1.70 98 1001.5
20260507221556 7 120 0.0 9.7 0.00 1.70 1.70 99 1001.6
20260507220058 8 123 4.8 17.7 0.03 1.70 1.70 98 1002.0
20260507214602 9 163 1.6 12.9 0.05 1.70 1.70 99 1001.6
20260507213054 9 109 1.6 11.3 0.15 1.70 1.70 100 1002.1
20260507211618 7 42 0.0 8.0 0.33 1.70 1.70 99 1001.4
20260507210054 7 146 6.4 14.5 0.48 1.68 1.68 97 1001.8
20260507204600 10 124 6.4 14.5 0.66 1.65 1.65 99 1001.7